{"data":{"norad_id":47894,"intl_designator":"2021-021AL","name":"STARLINK-2354","alt_names":[],"object_type":"PAYLOAD","status":"ACTIVE","operator":null,"country":"US","launch_date":"2021-03-14","launch_site_code":"AFETR","launch_vehicle":null,"mission":null,"orbit_class":"UNKNOWN","rcs_meters":null,"size_class":null,"mass_kg":null,"dimensions":null,"purposes":["comms"],"wikipedia_slug":null,"has_3d_model":false,"image_url":null,"decayed_at":null,"tle_current":{"epoch":"2026-05-25T01:14:00.703392Z","epoch_age_seconds":60770,"freshness":"FRESH","line1":"1 47894U 21021AL  26145.05139703  .00030405  00000+0  97450-3 0  9993","line2":"2 47894  53.1520 272.9070 0001849 111.3089 248.8110 15.32126941287883","mean_motion":15.32126941,"eccentricity":0.0001849,"inclination_deg":53.152,"raan_deg":272.907,"arg_perigee_deg":111.3089,"mean_anomaly_deg":248.811,"bstar":0.0009745,"rev_number":28788,"period_min":93.986990337767,"perigee_km":468.20147977766,"apogee_km":470.73372395943,"semimajor_km":6847.6046018685,"source":"CELESTRAK","updated_at":"2026-05-25T13:38:16.611813Z"}}}